TimeMST,TemperatureF,Dew PointF,Humidity,Sea Level PressureIn,VisibilityMPH,Wind Direction,Wind SpeedMPH,Gust SpeedMPH,PrecipitationIn,Events,Conditions,WindDirDegrees,DateUTC
12:14 AM,-9999,-9999,N/A,29.91,10.0,West,28.8,36.8,N/A,,Clear,270,2013-11-20 07:14:00
12:34 AM,-9999,-9999,N/A,29.91,10.0,WNW,24.2,35.7,N/A,,Clear,290,2013-11-20 07:34:00
12:54 AM,-9999,-9999,N/A,29.92,10.0,WNW,15.0,34.5,N/A,,Clear,290,2013-11-20 07:54:00
1:14 AM,-9999,-9999,N/A,29.93,10.0,West,18.4,34.5,N/A,,Clear,280,2013-11-20 08:14:00
1:34 AM,-9999,-9999,N/A,29.93,10.0,West,18.4,28.8,N/A,,Clear,280,2013-11-20 08:34:00
1:54 AM,-9999,-9999,N/A,29.93,10.0,West,25.3,35.7,N/A,,Clear,280,2013-11-20 08:54:00
2:13 AM,-9999,-9999,N/A,29.93,10.0,WNW,17.3,35.7,N/A,,Clear,300,2013-11-20 09:13:00
2:34 AM,-9999,-9999,N/A,29.94,10.0,WNW,18.4,33.4,N/A,,Clear,290,2013-11-20 09:34:00
2:54 AM,-9999,-9999,N/A,29.94,10.0,West,20.7,35.7,N/A,,Clear,280,2013-11-20 09:54:00
3:13 AM,-9999,-9999,N/A,29.93,10.0,West,21.9,35.7,N/A,,Clear,280,2013-11-20 10:13:00
3:34 AM,-9999,-9999,N/A,29.93,10.0,West,20.7,35.7,N/A,,Clear,270,2013-11-20 10:34:00
3:54 AM,-9999,-9999,N/A,29.94,10.0,West,21.9,34.5,N/A,,Clear,280,2013-11-20 10:54:00
4:14 AM,-9999,-9999,N/A,29.94,10.0,West,20.7,34.5,N/A,,Clear,270,2013-11-20 11:14:00
4:33 AM,-9999,-9999,N/A,29.95,10.0,WNW,16.1,38.0,N/A,,Clear,290,2013-11-20 11:33:00
4:54 AM,-9999,-9999,N/A,29.96,10.0,WNW,11.5,21.9,N/A,,Clear,290,2013-11-20 11:54:00
5:13 AM,-9999,-9999,N/A,29.96,10.0,West,18.4,27.6,N/A,,Clear,270,2013-11-20 12:13:00
5:33 AM,-9999,-9999,N/A,29.95,10.0,West,25.3,33.4,N/A,,Clear,270,2013-11-20 12:33:00
5:54 AM,-9999,-9999,N/A,29.95,10.0,West,21.9,39.1,N/A,,Clear,270,2013-11-20 12:54:00
6:13 AM,-9999,-9999,N/A,29.95,10.0,WSW,24.2,35.7,N/A,,Clear,250,2013-11-20 13:13:00
6:33 AM,-9999,-9999,N/A,29.95,10.0,West,19.6,34.5,N/A,,Clear,260,2013-11-20 13:33:00
6:53 AM,-9999,-9999,N/A,29.96,10.0,West,19.6,32.2,N/A,,Clear,260,2013-11-20 13:53:00
7:14 AM,-9999,-9999,N/A,29.97,10.0,WSW,15.0,26.5,N/A,,Clear,250,2013-11-20 14:14:00
7:34 AM,-9999,-9999,N/A,29.98,10.0,WSW,15.0,24.2,N/A,,Clear,250,2013-11-20 14:34:00
7:54 AM,-9999,-9999,N/A,29.98,10.0,West,12.7,20.7,N/A,,Scattered Clouds,260,2013-11-20 14:54:00
8:14 AM,-9999,-9999,N/A,29.98,10.0,West,10.4,-,N/A,,Clear,270,2013-11-20 15:14:00
8:34 AM,-9999,-9999,N/A,29.98,10.0,WSW,8.1,-,N/A,,Clear,240,2013-11-20 15:34:00
8:54 AM,-9999,-9999,N/A,29.99,10.0,West,5.8,-,N/A,,Scattered Clouds,280,2013-11-20 15:54:00
9:14 AM,-9999,-9999,N/A,29.98,10.0,NW,3.5,-,N/A,,Scattered Clouds,320,2013-11-20 16:14:00
9:34 AM,-9999,-9999,N/A,29.98,10.0,West,11.5,16.1,N/A,,Scattered Clouds,280,2013-11-20 16:34:00
9:54 AM,-9999,-9999,N/A,29.98,10.0,West,13.8,20.7,N/A,,Clear,260,2013-11-20 16:54:00
10:14 AM,-9999,-9999,N/A,29.98,10.0,West,5.8,-,N/A,,Clear,260,2013-11-20 17:14:00
10:34 AM,-9999,-9999,N/A,29.97,10.0,East,4.6,-,N/A,,Clear,100,2013-11-20 17:34:00
10:54 AM,-9999,-9999,N/A,29.96,10.0,NW,4.6,-,N/A,,Clear,320,2013-11-20 17:54:00
11:14 AM,-9999,-9999,N/A,29.95,10.0,WSW,8.1,-,N/A,,Clear,240,2013-11-20 18:14:00
11:34 AM,-9999,-9999,N/A,29.94,10.0,South,8.1,-,N/A,,Clear,190,2013-11-20 18:34:00
11:54 AM,-9999,-9999,N/A,29.94,10.0,SSE,4.6,-,N/A,,Clear,150,2013-11-20 18:54:00
12:14 PM,-9999,-9999,N/A,29.93,10.0,WNW,4.6,-,N/A,,Clear,300,2013-11-20 19:14:00
12:33 PM,-9999,-9999,N/A,29.93,10.0,East,3.5,-,N/A,,Clear,100,2013-11-20 19:33:00
12:54 PM,-9999,-9999,N/A,29.92,10.0,Calm,Calm,-,N/A,,Clear,0,2013-11-20 19:54:00
1:13 PM,-9999,-9999,N/A,29.92,10.0,WSW,3.5,-,N/A,,Clear,250,2013-11-20 20:13:00
1:34 PM,-9999,-9999,N/A,29.91,10.0,SSE,4.6,-,N/A,,Clear,160,2013-11-20 20:34:00
1:54 PM,-9999,-9999,N/A,29.91,10.0,Calm,Calm,-,N/A,,Scattered Clouds,0,2013-11-20 20:54:00
2:14 PM,-9999,-9999,N/A,29.91,10.0,South,4.6,-,N/A,,Scattered Clouds,170,2013-11-20 21:14:00
2:34 PM,-9999,-9999,N/A,29.91,10.0,Calm,Calm,-,N/A,,Scattered Clouds,0,2013-11-20 21:34:00
2:54 PM,-9999,-9999,N/A,29.90,10.0,West,3.5,-,N/A,,Scattered Clouds,260,2013-11-20 21:54:00
3:14 PM,-9999,-9999,N/A,29.91,10.0,NW,6.9,-,N/A,,Clear,320,2013-11-20 22:14:00
3:34 PM,-9999,-9999,N/A,29.91,10.0,North,5.8,-,N/A,,Mostly Cloudy,360,2013-11-20 22:34:00
3:54 PM,-9999,-9999,N/A,29.92,10.0,NNW,5.8,-,N/A,,Overcast,340,2013-11-20 22:54:00
4:14 PM,-9999,-9999,N/A,29.93,10.0,NNW,6.9,-,N/A,,Overcast,330,2013-11-20 23:14:00
4:34 PM,-9999,-9999,N/A,29.92,10.0,NNW,5.8,-,N/A,,Overcast,340,2013-11-20 23:34:00
4:53 PM,-9999,-9999,N/A,29.93,10.0,West,12.7,20.7,N/A,,Overcast,270,2013-11-20 23:53:00
5:14 PM,-9999,-9999,N/A,29.93,10.0,WNW,9.2,18.4,N/A,,Overcast,300,2013-11-21 00:14:00
5:34 PM,-9999,-9999,N/A,29.93,10.0,West,12.7,18.4,N/A,,Overcast,280,2013-11-21 00:34:00
5:54 PM,-9999,-9999,N/A,29.93,10.0,West,12.7,-,N/A,,Overcast,260,2013-11-21 00:54:00
6:14 PM,-9999,-9999,N/A,29.94,10.0,West,9.2,-,N/A,,Overcast,260,2013-11-21 01:14:00
6:33 PM,-9999,-9999,N/A,29.94,10.0,SW,5.8,-,N/A,,Overcast,230,2013-11-21 01:33:00
6:54 PM,-9999,-9999,N/A,29.94,10.0,Calm,Calm,-,N/A,,Overcast,0,2013-11-21 01:54:00
7:14 PM,-9999,-9999,N/A,29.95,10.0,WNW,3.5,-,N/A,,Overcast,290,2013-11-21 02:14:00
7:34 PM,-9999,-9999,N/A,29.95,10.0,NW,5.8,-,N/A,,Overcast,310,2013-11-21 02:34:00
7:54 PM,-9999,-9999,N/A,29.95,10.0,NNW,4.6,-,N/A,,Overcast,330,2013-11-21 02:54:00
8:14 PM,-9999,-9999,N/A,29.96,10.0,WNW,4.6,-,N/A,,Overcast,300,2013-11-21 03:14:00
8:34 PM,-9999,-9999,N/A,29.96,10.0,WNW,4.6,-,N/A,,Overcast,290,2013-11-21 03:34:00
8:54 PM,-9999,-9999,N/A,29.96,10.0,West,4.6,-,N/A,,Overcast,270,2013-11-21 03:54:00
9:14 PM,-9999,-9999,N/A,29.96,10.0,Calm,Calm,-,N/A,,Overcast,0,2013-11-21 04:14:00
9:34 PM,-9999,-9999,N/A,29.96,10.0,Calm,Calm,-,N/A,,Overcast,0,2013-11-21 04:34:00
9:53 PM,-9999,-9999,N/A,29.96,4.0,Calm,Calm,-,N/A,,Unknown,0,2013-11-21 04:53:00
10:14 PM,-9999,-9999,N/A,29.96,5.0,North,3.5,-,N/A,,Unknown,10,2013-11-21 05:14:00
10:34 PM,-9999,-9999,N/A,29.96,2.5,North,3.5,-,N/A,,Unknown,10,2013-11-21 05:34:00
10:54 PM,-9999,-9999,N/A,29.96,2.5,NNE,3.5,-,N/A,,Unknown,20,2013-11-21 05:54:00
11:14 PM,-9999,-9999,N/A,29.96,2.0,Calm,Calm,-,N/A,,Unknown,0,2013-11-21 06:14:00
11:34 PM,-9999,-9999,N/A,29.96,3.0,Calm,Calm,-,N/A,,Unknown,0,2013-11-21 06:34:00
11:54 PM,-9999,-9999,N/A,29.96,2.0,Calm,Calm,-,N/A,,Unknown,0,2013-11-21 06:54:00